Flag for Mexico Weather past 2 weeks in Querétaro, Querétaro, Mexico

Now
64 °F

Clear.


Feels Like: 64 °F
Forecast: 55 / 85 °F
Wind: No wind

Location: Queretaro - Qro.


UV Index: 10 (Very high)

Visibility: 10 mi


Pressure: 30.22 "Hg

Humidity: 40%

Dew point: 39 °F

Location of QuerétaroLocation

Historic Weather in Querétaro

°F

Querétaro temperature yesterday

Maximum temperature yesterday: 82 °F (at 1:45 PM)
Minimum temperature yesterday: 46 °F (at 6:45 AM)
Average temperature yesterday: 63 °F

Past Weeks' High & Low Weather Summary

 TemperatureHumidityPressure
High91 °F (Apr 6, 2:45 PM)87% (Apr 10, 3:45 AM)30.48 "Hg (Apr 10, 3:45 AM)
Low45 °F (Apr 10, 7:55 AM)6% (Apr 6, 2:45 PM)30.01 "Hg (Apr 6, 6:50 PM)
Average68 °F39%30.22 "Hg
* Reported Apr 2 1:45 AM — Apr 17 2:45 AM, Querétaro, Weather by CustomWeather, © 2014

Note: Actual official high and low records may vary slightly from our data, if they occured in-between our weather recording intervals... More about our weather records

Advertising

Historic Weather Conditions — Data for Previous 24 hours

 ConditionsComfort  
Time TempWeatherWind HumidityBarometerVisibility
2:45 AM
Apr 17
66 °FPassing clouds.7 mph37%30.17 "Hg10 mi
1:45 AM68 °FPassing clouds.7 mph35%30.17 "Hg10 mi
12:45 AM68 °FPassing clouds.8 mph35%30.17 "Hg10 mi
11:45 PM
Apr 16
70 °FPassing clouds.10 mph33%30.18 "Hg10 mi
10:45 PM72 °FPassing clouds.12 mph31%30.15 "Hg10 mi
9:45 PM75 °FPartly cloudy.16 mph25%30.12 "Hg10 mi
8:45 PM72 °FScattered clouds.9 mph31%30.08 "Hg7 mi
7:45 PM73 °FBroken clouds.21 mph31%30.05 "Hg7 mi
5:45 PM81 °FPartly sunny.23 mph24%30.08 "Hg7 mi
3:45 PM79 °FPartly sunny.12 mph26%30.12 "Hg7 mi
2:45 PM79 °FPartly sunny.17 mph23%30.16 "Hg7 mi
1:45 PM82 °FScattered clouds.14 mph19%30.18 "Hg8 mi
12:45 PM79 °FScattered clouds.12 mph23%30.22 "Hg8 mi
11:45 AM72 °FPassing clouds.7 mph31%30.24 "Hg8 mi
10:45 AM63 °FSunny.No wind45%30.24 "Hg8 mi
9:45 AM54 °FSunny.No wind63%30.24 "Hg8 mi
8:45 AM48 °FSunny.No wind87%30.23 "Hg8 mi
7:45 AM46 °FClear.No wind87%30.23 "Hg7 mi
6:45 AM46 °FClear.No wind76%30.24 "Hg7 mi
5:45 AM48 °FClear.No wind71%30.24 "Hg7 mi
4:45 AM48 °FClear.No wind71%30.26 "Hg7 mi
Weather by CustomWeather, © 2014

See weather overview